GLOBALSTAR M001 [-]

Last updated on July 6, 2021, 3:36 p.m. UTC

1 25162U 98008A   21186.80114299 -.00000058  00000-0  29482-3 0  9995
2 25162  52.0005 211.0474 0001403 118.6147  52.0170 12.38133180 65034
UTC
Height (km)
Latitude
Longitude
Inclination
Orbital Period
UTC large
Height (km)
Speed (km/s)
/
Latitude / Longitude
Inclination (degrees)
Orbital Period (minutes)
Azimuth
Elevation
Range (km)
Doppler Factor
iOS Compass Heading
iOS Angle